User: anonymous   Login
Location: Caltech
(34.1382°N, 118.1253°W)
Time: 06:22:27
(UTC-07:00)
Language:

Iridium 12 - Orbit

View from above orbital plane
View from above orbital plane
View from above satellite
View from above satellite

Ground track
Ground track

The orbit data is extracted from the following two-line orbital elements,

1 24837U 97030B   14304.29974340  .00000595  00000-0  20531-3 0   470
2 24837 086.3998 031.3407 0002254 110.2897 306.8572 14.34217360909367
Epoch (UTC): 31 October 2014 07:11:37
Eccentricity: 0.0002254
inclination: 86.3998°
perigee height: 776 km
apogee height: 779 km
right ascension of ascending node: 31.3407°
argument of perigee: 110.2897°
revolutions per day: 14.34217360
mean anomaly at epoch: 306.8572°
orbit number at epoch: 90936

The dashed part of the orbit path shows where the satellite is in the earth's shadow,  

DLR